Regional Weather Roundup
Issued by NWS

Home | Current Version | Previous Version | Text Only | Print | Product List | Glossary Off
Versions: 1 2 3 4 5 6 7 8 9 10 11 12 13 14 15 16 17 18 19 20 21 22 23 24 25 26 27 28 29 30 31 32 33 34 35 36 37 38 39 40 41 42 43 44 45 46 47 48 49 50

000
ASUS43 KTOP 170508
RWRKS

WEATHER ROUNDUP FOR KANSAS
NATIONAL WEATHER SERVICE GOODLAND KS
1100 PM CST FRI FEB 16 2018

NOTE:  "FAIR" INDICATES FEW OR NO CLOUDS BELOW 12,000 FEET WITH NO
SIGNIFICANT WEATHER AND/OR OBSTRUCTIONS TO VISIBILITY.

KSZ001>006-013>018-027>032-041>047-170600-
NORTHWEST KANSAS

CITY           SKY/WX    TMP DP  RH WIND       PRES   REMARKS
GOODLAND       CLOUDY    30  18  60 S16       29.83F WCI  19
HAYS           CLOUDY    30  16  56 S10       29.99  WCI  21
HILL CITY      CLOUDY    32  17  54 S9        29.96F
RUSSELL        CLOUDY    33  15  47 S14       30.00F WCI  23
$$

KSZ061>065-074>080-084>089-170600-
SOUTHWEST KANSAS

CITY           SKY/WX    TMP DP  RH WIND       PRES   REMARKS
DODGE CITY     CLOUDY    31  14  49 S18       30.00F WCI  19
ELKHART        MOCLDY    41  29  62 S18       29.93F
GARDEN CITY    CLOUDY    32  16  51 S16G28    29.93F WCI  21
GREAT BEND     PTCLDY    31  15  52 S14       30.03F WCI  21
LIBERAL        CLOUDY    35  17  47 S16       29.98F WCI  25
PRATT          CLOUDY    32  13  45 S12G17    30.07F WCI  23
$$

KSZ066>073-081>083-090>101-170600-
SOUTHEAST KANSAS

CITY           SKY/WX    TMP DP  RH WIND       PRES   REMARKS
CHANUTE        CLOUDY    35  18  49 SE9       30.18F
COFFEYVILLE    MOCLDY    37  24  59 E5        30.17F
HUTCHINSON     PTCLDY    33  14  45 SE9       30.08F
MEDICINE LODGE   N/A     35  16  45 SE6       30.10F
NEWTON         CLOUDY    32  15  49 S12       30.11  WCI  23
PARSONS        CLOUDY    36  22  56 CALM      30.18F
WICHITA INTL   PTCLDY    36  17  46 SE12      30.12F WCI  28
WICHITA JABRA  CLOUDY    34  16  47 SE9       30.13F
WICHITA MCCONL PTCLDY    35  15  44 SE8       30.12F
WINFIELD       CLOUDY    35  20  54 SE5       30.16F
$$

KSZ007>012-019>026-033>040-048>060-102>105-170600-
NORTHEAST KANSAS

CITY           SKY/WX    TMP DP  RH WIND       PRES   REMARKS
CONCORDIA      CLOUDY    29  12  49 S9        30.07F
EMPORIA        CLOUDY    31  15  52 SE10      30.14F WCI  22
LAWRENCE       CLOUDY    27  17  66 E6        30.18F
MANHATTAN      CLOUDY    29  13  51 CALM      30.12F
MARYSVILLE     PTCLDY    28  12  50 SE7       30.11F
OLATHE IND     CLOUDY    30  12  47 SE6       30.17F
OLATHE EXE     CLOUDY    30   9  41 SE6       30.17F
SALINA         MOCLDY    33  13  43 SE8       30.09F
TOPEKA BILLARD CLOUDY    29  15  56 E6        30.16F
TOPEKA FORBES  MOCLDY    28  13  53 E5        30.15F
$$




USA.gov is the U.S. government's official web portal to all federal, state and local government web resources and services.